BTK7135 WADD-WSSS

Flight info

Callsign BTK7135
Flight time N/A
Altitude 36000
Route BORGI DCT UDONO M635 SURGA T23 UGEBO UGEBO1B
Aircraft A320/M-SDE3FGHIRWY/LB1

Departure

Time 2026-05-08 07:41
Airport Denpasar I Gusti Ngurah Rai International Airport (WADD)

Arrival

Time N/A
Airport Singapore Changi Airport (WSSS)
Time Latitude Longitude Altitude Speed Heading
2026-05-08 07:16 -8.74577 115.16408 23 ft 0 kts 358°
2026-05-08 07:30 -8.74581 115.16408 23 ft 2 kts 357°
2026-05-08 07:30 -8.74596 115.16409 22 ft 2 kts 356°
2026-05-08 07:30 -8.74611 115.16409 22 ft 2 kts 356°
2026-05-08 07:30 -8.74626 115.16411 22 ft 2 kts 356°
2026-05-08 07:31 -8.74641 115.16412 22 ft 2 kts 357°
2026-05-08 07:31 -8.74656 115.16412 21 ft 2 kts 357°
2026-05-08 07:31 -8.74670 115.16412 21 ft 0 kts 358°
2026-05-08 07:31 -8.74681 115.16414 21 ft 2 kts 339°
2026-05-08 07:32 -8.74694 115.16421 21 ft 2 kts 315°
2026-05-08 07:32 -8.74703 115.16434 20 ft 2 kts 291°
2026-05-08 07:32 -8.74706 115.16447 20 ft 0 kts 270°
2026-05-08 07:32 -8.74706 115.16454 20 ft 1 kts 266°
2026-05-08 07:33 -8.74706 115.16455 20 ft 0 kts 266°
2026-05-08 07:35 -8.74707 115.16443 20 ft 3 kts 266°
2026-05-08 07:35 -8.74709 115.16411 20 ft 5 kts 266°
2026-05-08 07:36 -8.74711 115.16365 20 ft 7 kts 268°
2026-05-08 07:36 -8.74713 115.16305 20 ft 9 kts 268°
2026-05-08 07:36 -8.74716 115.16225 18 ft 11 kts 267°
2026-05-08 07:36 -8.74720 115.16150 18 ft 10 kts 267°
2026-05-08 07:37 -8.74724 115.16070 16 ft 12 kts 267°
2026-05-08 07:37 -8.74727 115.15987 15 ft 10 kts 268°
2026-05-08 07:37 -8.74730 115.15913 15 ft 9 kts 267°
2026-05-08 07:37 -8.74733 115.15849 14 ft 8 kts 267°
2026-05-08 07:38 -8.74737 115.15778 13 ft 11 kts 267°
2026-05-08 07:38 -8.74741 115.15693 12 ft 12 kts 269°
2026-05-08 07:38 -8.74744 115.15601 12 ft 13 kts 267°
2026-05-08 07:38 -8.74748 115.15519 12 ft 10 kts 266°
2026-05-08 07:39 -8.74754 115.15447 12 ft 9 kts 256°
2026-05-08 07:39 -8.74803 115.15400 12 ft 10 kts 192°
2026-05-08 07:39 -8.74872 115.15402 12 ft 8 kts 173°
2026-05-08 07:39 -8.74912 115.15437 13 ft 7 kts 111°
2026-05-08 07:40 -8.74914 115.15485 13 ft 6 kts 87°
2026-05-08 07:40 -8.74908 115.15662 15 ft 56 kts 88°
2026-05-08 07:40 -8.74879 115.16276 18 ft 116 kts 89°
2026-05-08 07:40 -8.74839 115.17258 83 ft 156 kts 91°
2026-05-08 07:41 -8.74804 115.18401 439 ft 170 kts 90°
2026-05-08 07:41 -8.74764 115.19637 940 ft 180 kts 90°
2026-05-08 07:41 -8.74717 115.20848 1718 ft 172 kts 89°
2026-05-08 07:41 -8.74664 115.22051 2286 ft 176 kts 89°
2026-05-08 07:42 -8.74608 115.23338 2588 ft 192 kts 89°
2026-05-08 07:42 -8.74548 115.24738 2879 ft 209 kts 89°
2026-05-08 07:42 -8.74483 115.26305 3152 ft 231 kts 89°
2026-05-08 07:42 -8.74414 115.27964 3540 ft 248 kts 89°
2026-05-08 07:43 -8.74341 115.29745 4118 ft 257 kts 88°
2026-05-08 07:43 -8.74264 115.31569 4836 ft 261 kts 88°
2026-05-08 07:43 -8.74187 115.33405 5602 ft 264 kts 88°
2026-05-08 07:43 -8.74111 115.35245 6331 ft 268 kts 88°
2026-05-08 07:44 -8.74031 115.37142 7021 ft 274 kts 88°
2026-05-08 07:44 -8.73950 115.39062 7717 ft 279 kts 88°
2026-05-08 07:44 -8.73866 115.41035 8384 ft 284 kts 88°
2026-05-08 07:44 -8.73781 115.43032 8813 ft 287 kts 88°
2026-05-08 07:45 -8.73696 115.45046 9004 ft 288 kts 87°
2026-05-08 07:45 -8.73306 115.47043 9213 ft 296 kts 63°
2026-05-08 07:45 -8.71915 115.48559 9931 ft 297 kts 31°
2026-05-08 07:45 -8.69997 115.49260 10599 ft 300 kts
2026-05-08 07:46 -8.67869 115.49086 10926 ft 315 kts 341°
2026-05-08 07:46 -8.65966 115.47938 11220 ft 330 kts 317°
2026-05-08 07:46 -8.64296 115.46271 11544 ft 344 kts 314°
2026-05-08 07:46 -8.62626 115.44491 12023 ft 352 kts 312°
2026-05-08 07:47 -8.60948 115.42667 12634 ft 355 kts 312°
2026-05-08 07:47 -8.59272 115.40841 13234 ft 358 kts 312°
2026-05-08 07:47 -8.57560 115.38980 13815 ft 360 kts 312°
2026-05-08 07:47 -8.55844 115.37114 14375 ft 363 kts 312°
2026-05-08 07:48 -8.54108 115.35230 14953 ft 365 kts 311°
2026-05-08 07:48 -8.52364 115.33339 15506 ft 368 kts 311°
2026-05-08 07:48 -8.50625 115.31453 16045 ft 370 kts 312°
2026-05-08 07:48 -8.48862 115.29543 16579 ft 372 kts 312°
2026-05-08 07:49 -8.47107 115.27641 17087 ft 375 kts 312°
2026-05-08 07:49 -8.45312 115.25697 17591 ft 377 kts 312°
2026-05-08 07:49 -8.43522 115.23759 18092 ft 379 kts 312°
2026-05-08 07:49 -8.41706 115.21793 18576 ft 382 kts 312°
2026-05-08 07:50 -8.39897 115.19836 19036 ft 385 kts 312°
2026-05-08 07:50 -8.38053 115.17841 19498 ft 387 kts 312°
2026-05-08 07:50 -8.36221 115.15861 19956 ft 390 kts 312°
2026-05-08 07:50 -8.34365 115.13854 20413 ft 392 kts 312°
2026-05-08 07:51 -8.32511 115.11847 20839 ft 395 kts 312°
2026-05-08 07:51 -8.30636 115.09821 21266 ft 397 kts 312°
2026-05-08 07:51 -8.28731 115.07760 21686 ft 400 kts 312°
2026-05-08 07:51 -8.26830 115.05705 22116 ft 403 kts 312°
2026-05-08 07:52 -8.24925 115.03644 22527 ft 405 kts 312°
2026-05-08 07:52 -8.22997 115.01560 22930 ft 407 kts 312°
2026-05-08 07:52 -8.21034 114.99438 23322 ft 410 kts 312°
2026-05-08 07:52 -8.19089 114.97337 23703 ft 412 kts 312°
2026-05-08 07:53 -8.17145 114.95239 24086 ft 414 kts 312°
2026-05-08 07:53 -8.15152 114.93086 24460 ft 417 kts 312°
2026-05-08 07:53 -8.13158 114.90934 24825 ft 419 kts 312°
2026-05-08 07:53 -8.11182 114.88800 25172 ft 421 kts 312°
2026-05-08 07:54 -8.09163 114.86620 25504 ft 424 kts 312°
2026-05-08 07:54 -8.07142 114.84438 25830 ft 426 kts 312°
2026-05-08 07:54 -8.05113 114.82247 26145 ft 429 kts 312°
2026-05-08 07:54 -8.03088 114.80063 26451 ft 431 kts 312°
2026-05-08 07:55 -8.01013 114.77823 26753 ft 433 kts 312°
2026-05-08 07:55 -7.98972 114.75621 27038 ft 435 kts 312°
2026-05-08 07:55 -7.96903 114.73389 27328 ft 437 kts 312°
2026-05-08 07:55 -7.94801 114.71123 27611 ft 439 kts 312°
2026-05-08 07:56 -7.92723 114.68883 27885 ft 441 kts 312°
2026-05-08 07:56 -7.90621 114.66617 28161 ft 443 kts 312°
2026-05-08 07:56 -7.88502 114.64336 28431 ft 445 kts 313°
2026-05-08 07:56 -7.86377 114.62063 28802 ft 445 kts 312°
2026-05-08 07:57 -7.84258 114.59795 29225 ft 443 kts 312°
2026-05-08 07:57 -7.82155 114.57536 29655 ft 441 kts 312°
2026-05-08 07:57 -7.80054 114.55276 30060 ft 440 kts 312°
2026-05-08 07:57 -7.77966 114.53027 30436 ft 440 kts 312°
2026-05-08 07:58 -7.75867 114.50766 30824 ft 439 kts 312°
2026-05-08 07:58 -7.73774 114.48510 31224 ft 438 kts 312°
2026-05-08 07:58 -7.71718 114.46292 31587 ft 437 kts 312°
2026-05-08 07:58 -7.69631 114.44041 31932 ft 437 kts 312°
2026-05-08 07:59 -7.67555 114.41801 32274 ft 437 kts 312°
2026-05-08 07:59 -7.65475 114.39557 32634 ft 436 kts 312°
2026-05-08 07:59 -7.63408 114.37328 33018 ft 435 kts 312°
2026-05-08 07:59 -7.61323 114.35081 33411 ft 434 kts 312°
2026-05-08 08:00 -7.59253 114.32857 33807 ft 433 kts 313°
2026-05-08 08:00 -7.57112 114.30737 34200 ft 433 kts 316°
2026-05-08 08:00 -7.54835 114.28730 34553 ft 433 kts 320°
2026-05-08 08:00 -7.52460 114.26868 34839 ft 434 kts 322°
2026-05-08 08:01 -7.50012 114.25080 35095 ft 435 kts 323°
2026-05-08 08:01 -7.47549 114.23295 35336 ft 436 kts 323°
2026-05-08 08:01 -7.45059 114.21491 35568 ft 437 kts 323°
2026-05-08 08:01 -7.42597 114.19708 35775 ft 439 kts 323°
2026-05-08 08:02 -7.40104 114.17899 35811 ft 441 kts 323°
2026-05-08 08:02 -7.35092 114.14262 35823 ft 442 kts 323°
2026-05-08 08:03 -7.30105 114.10643 35818 ft 442 kts 323°
2026-05-08 08:03 -7.25085 114.07001 35810 ft 443 kts 323°
2026-05-08 08:04 -7.20050 114.03347 35808 ft 442 kts 323°
2026-05-08 08:04 -7.15041 113.99714 35808 ft 441 kts 323°
2026-05-08 08:05 -7.10072 113.96110 35804 ft 442 kts 323°
2026-05-08 08:05 -7.05047 113.92464 35807 ft 443 kts 323°
2026-05-08 08:06 -7.00001 113.88808 35801 ft 443 kts 323°
2026-05-08 08:06 -6.95012 113.85206 35805 ft 443 kts 323°
2026-05-08 08:07 -6.90005 113.81588 35802 ft 443 kts 323°
2026-05-08 08:07 -6.84947 113.77949 35803 ft 443 kts 323°
2026-05-08 08:08 -6.79939 113.74341 35797 ft 442 kts 323°
2026-05-08 08:08 -6.74915 113.70712 35795 ft 441 kts 323°
2026-05-08 08:09 -6.69916 113.67098 35793 ft 442 kts 323°
2026-05-08 08:09 -6.64900 113.63471 35791 ft 442 kts 323°
2026-05-08 08:10 -6.59885 113.59846 35791 ft 442 kts 323°
2026-05-08 08:10 -6.54871 113.56220 35791 ft 441 kts 323°
2026-05-08 08:11 -6.49884 113.52615 35793 ft 441 kts 323°
2026-05-08 08:11 -6.44895 113.49008 35792 ft 440 kts 323°
2026-05-08 08:12 -6.39930 113.45418 35793 ft 440 kts 323°
2026-05-08 08:12 -6.34911 113.41788 35792 ft 440 kts 323°
2026-05-08 08:13 -6.29950 113.38166 35791 ft 440 kts 321°
2026-05-08 08:13 -6.25301 113.34148 35790 ft 440 kts 315°
2026-05-08 08:14 -6.21149 113.29603 35788 ft 439 kts 308°
2026-05-08 08:14 -6.17392 113.24737 35790 ft 439 kts 307°
2026-05-08 08:15 -6.13662 113.19856 35791 ft 439 kts 307°
2026-05-08 08:15 -6.09941 113.15002 35792 ft 439 kts 307°
2026-05-08 08:16 -6.06211 113.10146 35794 ft 440 kts 307°
2026-05-08 08:16 -6.02461 113.05268 35792 ft 440 kts 307°
2026-05-08 08:17 -5.98692 113.00366 35791 ft 440 kts 307°
2026-05-08 08:17 -5.94949 112.95499 35793 ft 440 kts 307°
2026-05-08 08:18 -5.91200 112.90624 35793 ft 440 kts 307°
2026-05-08 08:18 -5.87451 112.85771 35792 ft 440 kts 307°
2026-05-08 08:19 -5.83684 112.80911 35793 ft 440 kts 307°
2026-05-08 08:19 -5.79952 112.76077 35794 ft 439 kts 307°
2026-05-08 08:20 -5.76211 112.71226 35793 ft 439 kts 307°
2026-05-08 08:20 -5.72467 112.66365 35793 ft 439 kts 307°
2026-05-08 08:21 -5.68710 112.61488 35793 ft 439 kts 307°
2026-05-08 08:21 -5.64995 112.56667 35793 ft 438 kts 308°
2026-05-08 08:22 -5.61243 112.51800 35794 ft 438 kts 308°
2026-05-08 08:22 -5.57518 112.46969 35792 ft 438 kts 308°
2026-05-08 08:23 -5.53767 112.42105 35791 ft 439 kts 308°
2026-05-08 08:23 -5.50020 112.37247 35789 ft 440 kts 308°
2026-05-08 08:24 -5.46308 112.32423 35785 ft 440 kts 308°
2026-05-08 08:24 -5.42581 112.27563 35780 ft 439 kts 308°
2026-05-08 08:25 -5.38849 112.22719 35782 ft 438 kts 308°
2026-05-08 08:25 -5.35105 112.17864 35782 ft 438 kts 308°
2026-05-08 08:26 -5.31371 112.13026 35783 ft 439 kts 308°
2026-05-08 08:26 -5.27630 112.08182 35786 ft 441 kts 308°
2026-05-08 08:27 -5.23874 112.03322 35789 ft 440 kts 308°
2026-05-08 08:27 -5.20114 111.98453 35793 ft 439 kts 308°
2026-05-08 08:28 -5.16390 111.93636 35792 ft 439 kts 308°
2026-05-08 08:28 -5.12659 111.88810 35791 ft 439 kts 308°
2026-05-08 08:29 -5.08902 111.83950 35793 ft 440 kts 308°
2026-05-08 08:29 -5.05150 111.79099 35792 ft 440 kts 308°
2026-05-08 08:30 -5.01410 111.74264 35792 ft 440 kts 309°
2026-05-08 08:30 -4.95780 111.66987 35792 ft 440 kts 309°
2026-05-08 08:31 -4.92033 111.62144 35793 ft 441 kts 309°
2026-05-08 08:31 -4.88263 111.57284 35794 ft 441 kts 309°
2026-05-08 08:32 -4.84467 111.52415 35793 ft 441 kts 309°
2026-05-08 08:32 -4.80676 111.47532 35792 ft 442 kts 309°
2026-05-08 08:33 -4.76906 111.42664 35794 ft 442 kts 309°
2026-05-08 08:33 -4.73128 111.37784 35792 ft 442 kts 309°
2026-05-08 08:34 -4.69363 111.32906 35789 ft 442 kts 309°
2026-05-08 08:34 -4.65609 111.28027 35785 ft 442 kts 309°
2026-05-08 08:35 -4.61844 111.23160 35785 ft 443 kts 309°
2026-05-08 08:35 -4.58085 111.18302 35782 ft 444 kts 309°
2026-05-08 08:36 -4.54296 111.13390 35784 ft 444 kts 309°
2026-05-08 08:36 -4.50530 111.08503 35783 ft 443 kts 309°
2026-05-08 08:37 -4.46744 111.03590 35784 ft 442 kts 309°
2026-05-08 08:37 -4.42991 110.98721 35779 ft 443 kts 309°
2026-05-08 08:38 -4.39209 110.93815 35773 ft 445 kts 309°
2026-05-08 08:38 -4.35432 110.88914 35774 ft 445 kts 309°
2026-05-08 08:39 -4.31651 110.84010 35774 ft 445 kts 309°
2026-05-08 08:39 -4.27853 110.79085 35781 ft 445 kts 309°
2026-05-08 08:40 -4.24078 110.74188 35791 ft 445 kts 309°
2026-05-08 08:40 -4.20315 110.69307 35793 ft 445 kts 309°
2026-05-08 08:41 -4.16510 110.64374 35793 ft 445 kts 309°
2026-05-08 08:41 -4.12731 110.59477 35792 ft 446 kts 309°
2026-05-08 08:42 -4.08951 110.54578 35793 ft 446 kts 309°
2026-05-08 08:42 -4.05144 110.49643 35794 ft 446 kts 309°
2026-05-08 08:43 -4.01349 110.44718 35793 ft 446 kts 309°
2026-05-08 08:43 -3.97545 110.39789 35793 ft 446 kts 309°
2026-05-08 08:44 -3.93596 110.35043 35789 ft 445 kts 313°
2026-05-08 08:44 -3.89539 110.30311 35790 ft 445 kts 312°
2026-05-08 08:45 -3.85500 110.25627 35788 ft 445 kts 313°
2026-05-08 08:45 -3.81467 110.20942 35789 ft 445 kts 313°